^^
Paulen-Weather Station Historical Data
Daily Summary for January 31, 2020 Units:  Metric    English   Both
Daily Weekly Monthly Yearly Custom
  High: Low: Average:
Temperature: 7 °C 2 °C 3.3 °C
Dew Point: 7 °C 2 °C 2.8 °C
Humidity: 99% 92% 96%
Wind Speed: 37km/h 0km/h 10.2km/h
Wind Gust: 39km/h - -
Wind- - ESE
Pressure: 993.84 hPa 982.39 hPa -
Precipitation: 0.41 mm    
Historical Graphs
 
 
Tabular Data for January 31, 2020
Time Temperature Dew Point Pressure Wind Wind Speed Wind Gust Humidity Rainfall Rate (Hourly) solar
00:04 2 °C 2 °C 982.39 hPa NNE 22 km/h 24 km/h 97% 0.2 mm 0 W/m2
00:09 2 °C 2 °C 982.39 hPa NNE 22 km/h 24 km/h 97% 0.2 mm 0 W/m2
00:14 2 °C 2 °C 982.59 hPa NNE 30 km/h 28 km/h 97% 0.2 mm 0 W/m2
00:19 2 °C 2 °C 982.66 hPa NNE 33 km/h 34 km/h 97% 0.2 mm 0 W/m2
00:24 2 °C 2 °C 982.7 hPa NNE 33 km/h 35 km/h 97% 0.2 mm 0 W/m2
00:29 2 °C 2 °C 982.76 hPa NNE 32 km/h 35 km/h 97% 0 mm 0 W/m2
00:34 2 °C 2 °C 982.87 hPa NNE 35 km/h 33 km/h 96% 0 mm 0 W/m2
00:39 2 °C 2 °C 983 hPa NNE 37 km/h 37 km/h 96% 0 mm 0 W/m2
00:44 2 °C 2 °C 983.24 hPa NNE 32 km/h 39 km/h 96% 0 mm 0 W/m2
00:49 2 °C 2 °C 983.37 hPa NNE 30 km/h 28 km/h 96% 0 mm 0 W/m2
00:54 3 °C 2 °C 983.37 hPa NNE 30 km/h 34 km/h 95% 0 mm 0 W/m2
00:59 3 °C 2 °C 983.58 hPa NNE 30 km/h 34 km/h 95% 0 mm 0 W/m2
01:04 3 °C 2 °C 983.64 hPa NNE 30 km/h 32 km/h 95% 0 mm 0 W/m2
01:09 3 °C 2 °C 983.85 hPa NNE 26 km/h 32 km/h 95% 0 mm 0 W/m2
01:14 3 °C 2 °C 984.05 hPa NNE 26 km/h 27 km/h 95% 0 mm 0 W/m2
01:19 3 °C 2 °C 984.19 hPa NNE 26 km/h 27 km/h 95% 0 mm 0 W/m2
01:24 3 °C 2 °C 984.22 hPa NNE 25 km/h 27 km/h 95% 0 mm 0 W/m2
01:29 3 °C 2 °C 984.42 hPa NNE 22 km/h 27 km/h 96% 0 mm 0 W/m2
01:34 3 °C 2 °C 984.49 hPa NNE 22 km/h 26 km/h 96% 0 mm 0 W/m2
01:39 3 °C 2 °C 984.59 hPa NNE 23 km/h 26 km/h 96% 0 mm 0 W/m2
01:44 3 °C 2 °C 984.8 hPa NNE 23 km/h 24 km/h 96% 0 mm 0 W/m2
01:49 3 °C 2 °C 984.97 hPa NNE 21 km/h 26 km/h 96% 0 mm 0 W/m2
01:54 3 °C 2 °C 985.1 hPa NNE 21 km/h 24 km/h 96% 0 mm 0 W/m2
01:59 3 °C 2 °C 985.27 hPa NNE 19 km/h 17 km/h 96% 0 mm 0 W/m2
02:04 3 °C 2 °C 985.3 hPa NNE 20 km/h 20 km/h 96% 0 mm 0 W/m2
02:09 3 °C 2 °C 985.3 hPa NNE 23 km/h 23 km/h 96% 0 mm 0 W/m2
02:14 3 °C 2 °C 985.34 hPa NNE 21 km/h 24 km/h 96% 0 mm 0 W/m2
02:19 3 °C 2 °C 985.44 hPa NNE 20 km/h 23 km/h 96% 0 mm 0 W/m2
02:24 3 °C 2 °C 985.64 hPa NNE 20 km/h 23 km/h 96% 0 mm 0 W/m2
02:29 3 °C 2 °C 985.88 hPa NNE 20 km/h 23 km/h 96% 0 mm 0 W/m2
02:34 3 °C 2 °C 985.88 hPa NNE 21 km/h 21 km/h 95% 0 mm 0 W/m2
02:39 3 °C 2 °C 985.91 hPa NNE 23 km/h 23 km/h 95% 0 mm 0 W/m2
02:44 3 °C 2 °C 986.08 hPa NNE 19 km/h 24 km/h 95% 0 mm 0 W/m2
02:49 3 °C 2 °C 986.15 hPa NNE 18 km/h 15 km/h 95% 0 mm 0 W/m2
02:54 3 °C 2 °C 986.25 hPa NNE 17 km/h 19 km/h 95% 0 mm 0 W/m2
02:59 3 °C 2 °C 986.32 hPa NNE 16 km/h 19 km/h 95% 0 mm 0 W/m2
03:04 3 °C 2 °C 986.46 hPa NNE 17 km/h 19 km/h 95% 0 mm 0 W/m2
03:09 3 °C 2 °C 986.56 hPa NNE 16 km/h 19 km/h 95% 0 mm 0 W/m2
03:14 3 °C 2 °C 986.73 hPa NNE 15 km/h 13 km/h 95% 0 mm 0 W/m2
03:19 3 °C 2 °C 986.73 hPa NNE 16 km/h 16 km/h 94% 0 mm 0 W/m2
03:24 3 °C 2 °C 986.79 hPa NNE 17 km/h 19 km/h 94% 0 mm 0 W/m2
03:29 3 °C 2 °C 987 hPa NNE 17 km/h 19 km/h 94% 0 mm 0 W/m2
03:34 3 °C 2 °C 987.06 hPa NNE 17 km/h 19 km/h 94% 0 mm 0 W/m2
03:39 3 °C 2 °C 987.17 hPa NNE 16 km/h 19 km/h 94% 0 mm 0 W/m2
03:44 3 °C 2 °C 987.17 hPa NE 15 km/h 16 km/h 94% 0 mm 0 W/m2
03:49 3 °C 2 °C 987.27 hPa NNE 16 km/h 19 km/h 94% 0 mm 0 W/m2
03:54 3 °C 2 °C 987.34 hPa NE 16 km/h 19 km/h 93% 0 mm 0 W/m2
03:59 3 °C 2 °C 987.5 hPa NNE 15 km/h 16 km/h 93% 0 mm 0 W/m2
04:04 3 °C 2 °C 987.67 hPa NNE 16 km/h 16 km/h 93% 0 mm 0 W/m2
04:09 3 °C 2 °C 987.74 hPa NNE 14 km/h 19 km/h 93% 0 mm 0 W/m2
04:14 3 °C 2 °C 987.88 hPa NE 14 km/h 16 km/h 93% 0 mm 0 W/m2
04:19 3 °C 2 °C 988.01 hPa NNE 15 km/h 16 km/h 93% 0 mm 0 W/m2
04:24 3 °C 2 °C 988.22 hPa NNE 15 km/h 16 km/h 93% 0 mm 0 W/m2
04:29 3 °C 2 °C 988.32 hPa NNE 13 km/h 14 km/h 93% 0 mm 0 W/m2
04:34 3 °C 2 °C 988.32 hPa NNE 13 km/h 14 km/h 93% 0 mm 0 W/m2
04:39 3 °C 2 °C 988.42 hPa NE 13 km/h 14 km/h 93% 0 mm 0 W/m2
04:44 3 °C 2 °C 988.62 hPa NNE 12 km/h 14 km/h 93% 0 mm 0 W/m2
04:49 3 °C 2 °C 988.69 hPa NNE 11 km/h 13 km/h 92% 0 mm 0 W/m2
04:54 3 °C 2 °C 988.96 hPa NE 11 km/h 10 km/h 93% 0 mm 0 W/m2
04:59 3 °C 2 °C 988.99 hPa NE 9 km/h 10 km/h 93% 0 mm 0 W/m2
05:04 3 °C 2 °C 988.99 hPa NE 10 km/h 11 km/h 93% 0 mm 0 W/m2
05:09 3 °C 2 °C 989.16 hPa NE 10 km/h 11 km/h 93% 0 mm 0 W/m2
05:14 3 °C 2 °C 989.44 hPa NE 10 km/h 11 km/h 93% 0 mm 0 W/m2
05:19 3 °C 2 °C 989.44 hPa NE 9 km/h 11 km/h 93% 0 mm 0 W/m2
05:24 3 °C 2 °C 989.44 hPa NE 10 km/h 11 km/h 93% 0 mm 0 W/m2
05:29 3 °C 2 °C 989.54 hPa NE 8 km/h 11 km/h 93% 0 mm 0 W/m2
05:34 3 °C 2 °C 989.71 hPa ENE 6 km/h 10 km/h 93% 0 mm 0 W/m2
05:39 3 °C 2 °C 989.84 hPa NE 6 km/h 7 km/h 94% 0 mm 0 W/m2
05:44 3 °C 2 °C 989.91 hPa NE 7 km/h 8 km/h 94% 0 mm 0 W/m2
05:49 3 °C 2 °C 990.18 hPa NE 8 km/h 10 km/h 94% 0 mm 0 W/m2
05:54 3 °C 2 °C 990.28 hPa NE 7 km/h 10 km/h 94% 0 mm 0 W/m2
05:59 3 °C 2 °C 990.38 hPa NE 6 km/h 8 km/h 95% 0 mm 0 W/m2
06:04 3 °C 2 °C 990.42 hPa NE 6 km/h 6 km/h 95% 0 mm 0 W/m2
06:09 3 °C 2 °C 990.69 hPa NE 6 km/h 6 km/h 95% 0 mm 0 W/m2
06:14 3 °C 2 °C 990.69 hPa NE 7 km/h 8 km/h 95% 0 mm 0 W/m2
06:19 2 °C 2 °C 990.72 hPa NE 6 km/h 8 km/h 96% 0 mm 0 W/m2
06:24 2 °C 2 °C 990.82 hPa NE 6 km/h 6 km/h 96% 0 mm 0 W/m2
06:29 2 °C 2 °C 990.86 hPa NE 7 km/h 10 km/h 96% 0 mm 0 W/m2
06:34 2 °C 2 °C 990.89 hPa NE 6 km/h 8 km/h 96% 0 mm 0 W/m2
06:39 2 °C 2 °C 991.13 hPa NE 6 km/h 6 km/h 96% 0 mm 0 W/m2
06:44 2 °C 2 °C 991.37 hPa NE 6 km/h 8 km/h 96% 0 mm 0 W/m2
06:49 2 °C 2 °C 991.37 hPa NE 4 km/h 5 km/h 96% 0 mm 0 W/m2
06:54 2 °C 2 °C 991.4 hPa E 7 km/h 6 km/h 96% 0 mm 0 W/m2
06:59 2 °C 2 °C 991.5 hPa ESE 7 km/h 7 km/h 96% 0 mm 0 W/m2
07:04 2 °C 2 °C 991.53 hPa E 6 km/h 10 km/h 96% 0 mm 0 W/m2
07:09 2 °C 2 °C 991.67 hPa ESE 6 km/h 8 km/h 96% 0 mm 0 W/m2
07:14 2 °C 2 °C 991.91 hPa E 6 km/h 8 km/h 97% 0 mm 0 W/m2
07:19 2 °C 2 °C 991.97 hPa NE 5 km/h 8 km/h 97% 0 mm 0 W/m2
07:24 2 °C 2 °C 992.18 hPa NE 4 km/h 6 km/h 97% 0 mm 0 W/m2
07:29 2 °C 2 °C 992.31 hPa NE 1 km/h 3 km/h 97% 0 mm 0 W/m2
07:34 2 °C 2 °C 992.25 hPa NE 3 km/h 3 km/h 97% 0.2 mm 0 W/m2
07:39 2 °C 2 °C 992.28 hPa NE 2 km/h 3 km/h 97% 0.2 mm 0 W/m2
07:44 2 °C 2 °C 992.38 hPa NE 5 km/h 4 km/h 97% 0.2 mm 0 W/m2
07:49 2 °C 2 °C 992.42 hPa E 6 km/h 5 km/h 97% 0.2 mm 0 W/m2
07:54 2 °C 2 °C 992.35 hPa E 5 km/h 6 km/h 97% 0.2 mm 0 W/m2
07:59 2 °C 2 °C 992.35 hPa ESE 6 km/h 5 km/h 97% 0.2 mm 0 W/m2
08:04 2 °C 2 °C 992.35 hPa ESE 4 km/h 6 km/h 97% 0.2 mm 0 W/m2
08:09 2 °C 2 °C 992.45 hPa ESE 2 km/h 5 km/h 97% 0.2 mm 0 W/m2
08:14 2 °C 2 °C 992.48 hPa ESE 1 km/h 3 km/h 97% 0.2 mm 0 W/m2
08:19 2 °C 2 °C 992.42 hPa ESE 4 km/h 4 km/h 97% 0.2 mm 0 W/m2
08:24 2 °C 2 °C 992.45 hPa ESE 4 km/h 5 km/h 97% 0.2 mm 0 W/m2
08:29 2 °C 2 °C 992.45 hPa ESE 1 km/h 5 km/h 97% 0.2 mm 0 W/m2
08:34 2 °C 2 °C 992.62 hPa ESE 2 km/h 3 km/h 97% 0 mm 0 W/m2
08:39 2 °C 2 °C 992.62 hPa Calm   3 km/h 97% 0 mm 0 W/m2
08:44 2 °C 2 °C 992.72 hPa Calm     97% 0 mm 0 W/m2
08:49 2 °C 2 °C 992.82 hPa Calm     97% 0 mm 0 W/m2
08:54 2 °C 2 °C 993.09 hPa Calm     97% 0 mm 0 W/m2
08:59 2 °C 2 °C 993.16 hPa Calm     97% 0 mm 5 W/m2
09:04 2 °C 2 °C 993.4 hPa ESE 2 km/h 2 km/h 97% 0 mm 5 W/m2
09:09 2 °C 2 °C 993.43 hPa E 4 km/h 3 km/h 97% 0 mm 7 W/m2
09:14 2 °C 2 °C 993.43 hPa Calm   5 km/h 97% 0 mm 12 W/m2
09:19 2 °C 2 °C 993.3 hPa Calm     97% 0 mm 14 W/m2
09:24 2 °C 2 °C 993.19 hPa Calm     97% 0 mm 14 W/m2
09:29 2 °C 2 °C 993.3 hPa Calm     97% 0 mm 11 W/m2
09:34 2 °C 2 °C 993.33 hPa Calm     97% 0 mm 14 W/m2
09:39 2 °C 2 °C 993.4 hPa Calm     97% 0 mm 19 W/m2
09:44 2 °C 2 °C 993.46 hPa Calm     97% 0 mm 25 W/m2
09:49 2 °C 2 °C 993.57 hPa Calm     98% 0 mm 28 W/m2
09:54 2 °C 2 °C 993.5 hPa Calm     98% 0 mm 35 W/m2
09:59 2 °C 2 °C 993.5 hPa Calm     98% 0 mm 37 W/m2
10:04 2 °C 2 °C 993.5 hPa Calm     98% 0 mm 28 W/m2
10:09 2 °C 2 °C 993.53 hPa Calm     98% 0.2 mm 32 W/m2
10:14 3 °C 2 °C 993.5 hPa Calm     98% 0.2 mm 37 W/m2
10:19 3 °C 2 °C 993.63 hPa ESE 1 km/h 3 km/h 98% 0.2 mm 35 W/m2
10:24 3 °C 2 °C 993.6 hPa ESE 2 km/h 5 km/h 97% 0.2 mm 32 W/m2
10:29 3 °C 2 °C 993.57 hPa ESE 2 km/h 3 km/h 97% 0.2 mm 33 W/m2
10:34 3 °C 2 °C 993.63 hPa ESE 3 km/h 5 km/h 97% 0.2 mm 28 W/m2
10:39 3 °C 2 °C 993.63 hPa ESE 3 km/h 8 km/h 97% 0.2 mm 25 W/m2
10:44 3 °C 2 °C 993.5 hPa Calm   5 km/h 97% 0.2 mm 30 W/m2
10:49 3 °C 2 °C 993.5 hPa ESE 1 km/h   97% 0.2 mm 49 W/m2
10:54 3 °C 2 °C 993.4 hPa SSE 3 km/h 3 km/h 97% 0.2 mm 49 W/m2
10:59 3 °C 2 °C 993.4 hPa S 3 km/h 5 km/h 98% 0.2 mm 53 W/m2
11:04 3 °C 2 °C 993.43 hPa Calm   5 km/h 98% 0.2 mm 58 W/m2
11:09 3 °C 3 °C 993.53 hPa SSW 1 km/h   98% 0.2 mm 53 W/m2
11:14 3 °C 3 °C 993.4 hPa SSW 2 km/h 4 km/h 98% 0 mm 47 W/m2
11:19 3 °C 3 °C 993.4 hPa SSW 4 km/h 5 km/h 98% 0 mm 51 W/m2
11:24 3 °C 3 °C 993.46 hPa Calm   3 km/h 98% 0 mm 63 W/m2
11:29 3 °C 3 °C 993.53 hPa Calm     98% 0 mm 81 W/m2
11:34 3 °C 3 °C 993.7 hPa S 2 km/h 3 km/h 98% 0 mm 84 W/m2
11:39 3 °C 3 °C 993.67 hPa WNW 2 km/h 3 km/h 98% 0 mm 84 W/m2
11:44 3 °C 3 °C 993.67 hPa W 2 km/h 3 km/h 98% 0 mm 98 W/m2
11:49 4 °C 3 °C 993.77 hPa NW 5 km/h 4 km/h 98% 0 mm 111 W/m2
11:54 3 °C 3 °C 993.84 hPa NNW 5 km/h 6 km/h 97% 0 mm 111 W/m2
11:59 3 °C 3 °C 993.84 hPa NW 4 km/h 5 km/h 97% 0 mm 139 W/m2
12:04 4 °C 4 °C 993.74 hPa WNW 4 km/h 3 km/h 98% 0 mm 148 W/m2
12:09 4 °C 4 °C 993.6 hPa W 5 km/h 5 km/h 99% 0 mm 142 W/m2
12:14 5 °C 5 °C 993.53 hPa WNW 6 km/h 8 km/h 99% 0 mm 144 W/m2
12:19 5 °C 5 °C 993.43 hPa WNW 7 km/h 8 km/h 99% 0 mm 149 W/m2
12:24 5 °C 5 °C 993.5 hPa WNW 4 km/h 8 km/h 98% 0 mm 149 W/m2
12:29 5 °C 5 °C 993.53 hPa WNW 4 km/h 8 km/h 98% 0 mm 144 W/m2
12:34 5 °C 5 °C 993.57 hPa WNW 7 km/h 5 km/h 98% 0 mm 134 W/m2
12:39 5 °C 5 °C 993.57 hPa NW 6 km/h 8 km/h 98% 0 mm 139 W/m2
12:44 5 °C 5 °C 993.63 hPa NW 5 km/h 11 km/h 98% 0 mm 130 W/m2
12:49 5 °C 5 °C 993.63 hPa W 4 km/h 3 km/h 98% 0 mm 130 W/m2
12:54 5 °C 5 °C 993.6 hPa WNW 4 km/h 6 km/h 98% 0 mm 130 W/m2
12:59 5 °C 5 °C 993.6 hPa W 2 km/h 6 km/h 98% 0 mm 114 W/m2
13:04 5 °C 5 °C 993.5 hPa Calm   6 km/h 98% 0 mm 65 W/m2
13:09 5 °C 5 °C 993.5 hPa W 2 km/h 2 km/h 97% 0 mm 77 W/m2
13:14 5 °C 5 °C 993.57 hPa WNW 5 km/h 4 km/h 98% 0 mm 121 W/m2
13:19 6 °C 5 °C 993.57 hPa W 6 km/h 5 km/h 98% 0 mm 102 W/m2
13:24 6 °C 6 °C 993.57 hPa WNW 9 km/h 8 km/h 98% 0 mm 76 W/m2
13:29 6 °C 6 °C 993.5 hPa WNW 7 km/h 11 km/h 98% 0 mm 130 W/m2
13:34 6 °C 6 °C 993.5 hPa WNW 8 km/h 10 km/h 98% 0 mm 225 W/m2
13:39 7 °C 6 °C 993.5 hPa W 9 km/h 10 km/h 98% 0 mm 174 W/m2
13:44 7 °C 6 °C 993.57 hPa W 10 km/h 19 km/h 97% 0 mm 185 W/m2
13:49 7 °C 7 °C 993.57 hPa W 10 km/h 13 km/h 97% 0 mm 128 W/m2
13:54 7 °C 7 °C 993.57 hPa NW 15 km/h 12 km/h 97% 0 mm 132 W/m2
13:59 7 °C 6 °C 993.63 hPa WNW 12 km/h 19 km/h 96% 0 mm 104 W/m2
14:04 7 °C 6 °C 993.6 hPa WNW 14 km/h 19 km/h 96% 0 mm 95 W/m2
14:09 7 °C 6 °C 993.7 hPa WNW 13 km/h 16 km/h 96% 0 mm 86 W/m2
14:14 7 °C 6 °C 993.67 hPa WNW 10 km/h 7 km/h 95% 0 mm 79 W/m2
14:19 7 °C 6 °C 993.53 hPa WNW 9 km/h 11 km/h 95% 0 mm 81 W/m2
14:24 7 °C 6 °C 993.4 hPa WNW 10 km/h 16 km/h 95% 0 mm 81 W/m2
14:29 7 °C 6 °C 993.4 hPa WNW 10 km/h 13 km/h 95% 0 mm 79 W/m2
14:34 7 °C 6 °C 993.36 hPa WNW 9 km/h 16 km/h 95% 0 mm 79 W/m2
14:39 7 °C 6 °C 993.36 hPa WNW 10 km/h 11 km/h 95% 0 mm 79 W/m2
14:44 7 °C 6 °C 993.23 hPa WNW 12 km/h 11 km/h 95% 0 mm 77 W/m2
14:49 7 °C 6 °C 993.13 hPa W 13 km/h 14 km/h 95% 0 mm 72 W/m2
14:54 7 °C 6 °C 993.09 hPa WNW 12 km/h 19 km/h 94% 0 mm 70 W/m2
14:59 7 °C 6 °C 992.99 hPa W 16 km/h 23 km/h 94% 0 mm 67 W/m2
15:04 7 °C 6 °C 992.92 hPa NW 13 km/h 19 km/h 94% 0 mm 58 W/m2
15:09 7 °C 6 °C 992.86 hPa W 14 km/h 16 km/h 94% 0 mm 60 W/m2
Compliments of Weather Underground - 2 mb